Showing default

DEORBITSAIL, 40719

Orbit data source: Space-Track

DEORBITSAIL, 40719 is a payload satellite owned by Surrey Space Ctr (UK) in SSO that was launched on Fri, 10 Jul 2015 UTC via a PSLV-XL launch vehicle from the Sirharikota (SRI). Payload-class satellites include a variety of spacecraft equipped with specific instruments for various scientific and technological missions. These include communications satellites like Starlink; space stations such as the ISS; scientific satellites like the Hubble; Earth observation satellites from companies like Planet Labs, Umbra, and HawkEye 360; GPS; miniature CubeSats for education and research; and military/defense satellites.

Loading next visibility...
Identifier
40719, 2015-032E
Orbit
SSO
Country
Flag of UKUK
Related business
Manufacturer
Surrey Space Ctr
Mission
Non-operational Amateur Technology
Bus & Motor
CUBESAT 3U, Unknown motor
Mass
7 kg wet, 7 kg dry
Launch date (UTC)
2015-07-10 (10 years ago)
Launch vehicle
PSLV-XL
Launch site
Sirharikota (SRI)
Object type
Payload
Rocket body
Debris
Shape & HBR
Box + 1 Sail, 3.5 m
Radar Cross Section
0.039 m², Small (<0.1 m²)

Expand to show TLE details & history
Last TLE update: 17 hours ago

TLE from 17 hours ago
0 DEORBITSAIL
1 40719U 15032E   25312.57116163  .00015036  00000-0  12270-2 0  9994
2 40719  97.6235 168.7812 0008174 240.5528 119.4880 14.99499736558138
Epoch: 2025-11-08T13:42Z
TLE epoch observation values (Epoch: 2025-11-08T13:42:28.364Z)
Latitude
-0.00006°
Longitude
-84.83584°
Altitude
574.296 km
Speed
7.572 km/s
True Right ascension
11h 15m 07s
True Declination
0° 00' 00"
Sunlit
Object was in daylight at epoch
Visualization orbit readout
Latitude
Unknown
Longitude
Unknown
Altitude
Unknown
Speed
Unknown
Apparent Right ascension
Unknown
Apparent Declination
Unknown
Sunlit
N/A
Visualization observer readout
Local Sidereal Time
03:23:19
Azimuth
Unknown
Elevation
Unknown
Doppler factor
Unknown
Orbital elements
Apogee altitude
571.119 km
Perigee altitude
559.768 km
Semi-major axis
6,943.581 km
Eccentricity
0.00082
Inclination
97.6235°
RAAN
168.7812°
Arg. of periapsis
240.5528°
True anomaly
119.56949°
Mean anomaly
119.488°
Eccentric anomaly
119.52875°
Mean motion
3.75118 °/min
Orbital period
95.97 mins
BSTAR
0.001227
Loading maneuver chart data...
Computing Atmospheric mass density...
Loading historical data...
Loading historical data...
Loading historical data...
Loading historical data...
Loading historical data...
Loading historical data...
Loading historical data...
Other satellites on launch #32 in the year 2015 (2015-07-10 UTC)

Documentation

Showing up to 5 results
|